Year,Month,Day,Hour,Minute,Value (Times are PST for temperature in C)
2014,11,20,04,25,7.50
2014,11,20,04,26,7.50
2014,11,20,04,27,7.50
2014,11,20,04,28,7.50
2014,11,20,04,29,7.50
2014,11,20,04,30,7.50
2014,11,20,04,31,7.50
2014,11,20,04,32,7.50
2014,11,20,04,33,7.50
2014,11,20,04,34,7.50
2014,11,20,04,35,7.50
2014,11,20,04,36,7.50
2014,11,20,04,37,7.50
2014,11,20,04,38,7.50
2014,11,20,04,39,7.50
2014,11,20,04,40,7.50
2014,11,20,04,41,7.50
2014,11,20,08,04,7.80
2014,11,20,08,05,7.80
2014,11,20,08,06,7.70
2014,11,20,08,07,7.70
2014,11,20,08,08,7.70
2014,11,20,08,09,7.70
2014,11,20,08,10,7.70
2014,11,20,08,11,7.80
2014,11,20,08,12,7.80
2014,11,20,08,13,7.80
2014,11,20,08,14,7.80
2014,11,20,08,15,7.80
2014,11,20,08,16,7.80
2014,11,20,08,17,7.80
2014,11,20,08,18,7.80
2014,11,20,08,19,7.80
2014,11,20,08,20,7.80
2014,11,20,08,21,7.80
2014,11,20,08,22,7.90
2014,11,20,08,23,7.90
2014,11,20,08,24,7.90
2014,11,20,08,25,7.90
2014,11,20,08,26,7.90
2014,11,20,08,27,7.90
2014,11,20,08,28,7.90
2014,11,20,08,29,7.90
2014,11,20,08,30,8.00
2014,11,20,08,31,8.00
2014,11,20,08,32,8.00
2014,11,20,08,33,8.00
2014,11,20,08,34,8.10
2014,11,20,08,35,8.10
2014,11,20,08,36,8.10
2014,11,20,08,37,8.10
2014,11,20,08,38,8.20
2014,11,20,08,39,8.20
2014,11,20,08,40,8.20
2014,11,20,08,41,8.20
2014,11,20,08,42,8.20
2014,11,20,08,43,8.20
2014,11,20,08,44,8.20
2014,11,20,08,45,8.20
2014,11,20,08,46,8.20
2014,11,20,08,47,8.20
2014,11,20,08,48,8.30
2014,11,20,08,49,8.30
2014,11,20,08,50,8.30
2014,11,20,08,51,8.30
2014,11,20,08,52,8.30
2014,11,20,08,53,8.30
2014,11,20,08,54,8.30
2014,11,20,08,55,8.40
2014,11,20,08,56,8.40
2014,11,20,08,57,8.40
2014,11,20,08,58,8.40
2014,11,20,08,59,8.40
2014,11,20,09,00,8.40
2014,11,20,09,01,8.40
2014,11,20,09,02,8.40
2014,11,20,09,03,8.40
2014,11,20,09,04,8.40
2014,11,20,09,05,8.40
2014,11,20,09,06,8.40
2014,11,20,09,07,8.30
2014,11,20,09,08,8.30
2014,11,20,09,09,8.30
2014,11,20,09,10,8.30
2014,11,20,09,11,8.30
2014,11,20,09,12,8.30
2014,11,20,09,13,8.30
2014,11,20,09,14,8.30
2014,11,20,09,15,8.30
2014,11,20,09,16,8.30
2014,11,20,09,17,8.30
2014,11,20,09,18,8.30
2014,11,20,09,19,8.30
2014,11,20,09,20,8.30
2014,11,20,09,21,8.30
2014,11,20,09,22,8.40
2014,11,20,09,23,8.40
2014,11,20,09,24,8.40
2014,11,20,09,25,8.40
2014,11,20,09,26,8.40
2014,11,20,09,27,8.40
2014,11,20,09,28,8.40
2014,11,20,09,29,8.50
2014,11,20,09,30,8.50
2014,11,20,09,31,8.50
2014,11,20,09,32,8.50
2014,11,20,09,33,8.60
2014,11,20,09,34,8.60
2014,11,20,09,35,8.60
2014,11,20,09,36,8.70
2014,11,20,09,37,8.70
2014,11,20,09,38,8.70
2014,11,20,09,39,8.70
2014,11,20,09,40,8.70
2014,11,20,09,41,8.70
2014,11,20,09,42,8.70
2014,11,20,09,43,8.70
2014,11,20,09,44,8.70
2014,11,20,09,45,8.70
2014,11,20,09,46,8.70
2014,11,20,09,47,8.70
2014,11,20,09,48,8.70
2014,11,20,09,49,8.70
2014,11,20,09,50,8.70
2014,11,20,09,51,8.80
2014,11,20,09,52,8.80
2014,11,20,09,53,8.80
2014,11,20,09,54,8.80
2014,11,20,09,55,8.80
2014,11,20,09,56,8.80
2014,11,20,09,57,8.80
2014,11,20,09,58,8.90
2014,11,20,09,59,8.90
2014,11,20,10,00,8.90
2014,11,20,10,01,8.90
2014,11,20,10,02,8.90
2014,11,20,10,03,8.90
2014,11,20,10,04,9.00
2014,11,20,10,05,9.00
2014,11,20,10,06,9.00
2014,11,20,10,07,9.00
2014,11,20,10,08,9.10
2014,11,20,10,09,9.10
2014,11,20,10,10,9.10
2014,11,20,10,11,9.20
2014,11,20,10,12,9.20
2014,11,20,10,13,9.20
2014,11,20,10,14,9.20
2014,11,20,10,15,9.30
2014,11,20,10,16,9.30
2014,11,20,10,17,9.40
2014,11,20,10,18,9.40
2014,11,20,10,19,9.40
2014,11,20,10,20,9.40
2014,11,20,10,21,9.50
2014,11,20,10,22,9.50
2014,11,20,10,23,9.50
2014,11,20,10,24,9.50
2014,11,20,10,25,9.40
2014,11,20,10,26,9.40
2014,11,20,10,27,9.40
2014,11,20,10,28,9.40
2014,11,20,10,29,9.40
2014,11,20,10,30,9.40
2014,11,20,10,31,9.40
2014,11,20,10,32,9.40
2014,11,20,10,33,9.40
2014,11,20,10,34,9.40
2014,11,20,10,35,9.30
2014,11,20,10,36,9.30
2014,11,20,10,37,9.30
2014,11,20,10,38,9.30
2014,11,20,10,39,9.30
2014,11,20,10,40,9.30
2014,11,20,10,41,9.30
2014,11,20,10,42,9.30
2014,11,20,10,43,9.20
2014,11,20,10,44,9.20
2014,11,20,10,45,9.20
2014,11,20,10,46,9.20
2014,11,20,10,47,9.20
2014,11,20,10,48,9.20
2014,11,20,10,49,9.20
2014,11,20,10,50,9.20
2014,11,20,10,51,9.20
2014,11,20,10,52,9.20
2014,11,20,10,53,9.20
2014,11,20,10,54,9.20
2014,11,20,10,55,9.20
2014,11,20,10,56,9.20
2014,11,20,10,57,9.20
2014,11,20,10,58,9.20
2014,11,20,10,59,9.20
2014,11,20,11,00,9.20
2014,11,20,11,01,9.30
2014,11,20,11,02,9.30
2014,11,20,11,03,9.30
2014,11,20,11,04,9.30
2014,11,20,11,05,9.30
2014,11,20,11,06,9.30
2014,11,20,11,07,9.30
2014,11,20,11,08,9.30
2014,11,20,11,09,9.30
2014,11,20,11,10,9.30
2014,11,20,11,11,9.30
2014,11,20,11,12,9.30
2014,11,20,11,13,9.30
2014,11,20,11,14,9.30
2014,11,20,11,15,9.30
2014,11,20,11,16,9.30
2014,11,20,11,17,9.30
2014,11,20,11,18,9.30
2014,11,20,11,19,9.30
2014,11,20,11,20,9.30
2014,11,20,11,21,9.30
2014,11,20,11,22,9.30
2014,11,20,11,23,9.30
2014,11,20,11,24,9.30
2014,11,20,11,25,9.20
2014,11,20,11,26,9.20
2014,11,20,11,27,9.20
2014,11,20,11,28,9.20
2014,11,20,11,29,9.30
2014,11,20,11,30,9.30
2014,11,20,11,31,9.30
2014,11,20,11,32,9.30
2014,11,20,11,33,9.20
2014,11,20,11,34,9.20
2014,11,20,11,35,9.20
2014,11,20,11,36,9.20
2014,11,20,11,37,9.20
2014,11,20,11,38,9.20
2014,11,20,11,39,9.20
2014,11,20,11,40,9.20
2014,11,20,11,41,9.20
2014,11,20,11,42,9.20
2014,11,20,11,43,9.20
2014,11,20,11,44,9.20
2014,11,20,11,45,9.20
2014,11,20,11,46,9.20
2014,11,20,11,47,9.20
2014,11,20,11,48,9.20
2014,11,20,11,49,9.20
2014,11,20,11,50,9.20
2014,11,20,11,51,9.20
2014,11,20,11,52,9.20
2014,11,20,11,53,9.20
2014,11,20,11,54,9.20
2014,11,20,11,55,9.20
2014,11,20,11,56,9.20
2014,11,20,11,57,9.20
2014,11,20,11,58,9.20
2014,11,20,11,59,9.20
2014,11,20,12,00,9.20
2014,11,20,12,01,9.20
2014,11,20,12,04,9.20
2014,11,20,12,05,9.20
2014,11,20,12,06,9.20
2014,11,20,12,07,9.20
2014,11,20,12,08,9.20
2014,11,20,12,09,9.20
2014,11,20,12,10,9.20
2014,11,20,12,11,9.20
2014,11,20,12,12,9.20
2014,11,20,12,13,9.20
2014,11,20,12,14,9.20
2014,11,20,12,15,9.20
2014,11,20,12,16,9.20
2014,11,20,12,17,9.20
2014,11,20,12,18,9.20
2014,11,20,12,19,9.20
2014,11,20,12,20,9.20
2014,11,20,12,21,9.20
2014,11,20,12,22,9.20
2014,11,20,12,23,9.20
2014,11,20,12,24,9.20
2014,11,20,12,25,9.20
2014,11,20,12,26,9.20
2014,11,20,12,27,9.20
2014,11,20,12,28,9.20
2014,11,20,12,29,9.20
2014,11,20,12,30,9.20
2014,11,20,12,31,9.20
2014,11,20,12,32,9.20
2014,11,20,12,33,9.20
2014,11,20,12,34,9.20
2014,11,20,12,35,9.20
2014,11,20,12,36,9.20
2014,11,20,12,37,9.20
2014,11,20,12,38,9.20
2014,11,20,12,39,9.20
2014,11,20,12,40,9.20
2014,11,20,12,41,9.20
2014,11,20,12,42,9.20
2014,11,20,12,43,9.20
2014,11,20,12,44,9.20
2014,11,20,12,45,9.20
2014,11,20,12,46,9.20
2014,11,20,12,47,9.20
2014,11,20,12,48,9.20
2014,11,20,12,49,9.20
2014,11,20,12,50,9.20
2014,11,20,12,51,9.20
2014,11,20,12,52,9.20
2014,11,20,12,53,9.20
2014,11,20,12,54,9.20
2014,11,20,12,55,9.20
2014,11,20,12,56,9.20
2014,11,20,12,57,9.20
2014,11,20,12,58,9.20
2014,11,20,12,59,9.20
2014,11,20,13,00,9.20
2014,11,20,13,01,9.20
2014,11,20,13,02,9.20
2014,11,20,13,03,9.20
2014,11,20,13,04,9.20
2014,11,20,13,05,9.20
2014,11,20,13,06,9.20
2014,11,20,13,07,9.20
2014,11,20,13,08,9.20
2014,11,20,13,09,9.20
2014,11,20,13,10,9.20
2014,11,20,13,11,9.20
2014,11,20,13,12,9.20
2014,11,20,13,13,9.20
2014,11,20,13,14,9.20
2014,11,20,13,15,9.20
2014,11,20,13,16,9.20
2014,11,20,13,17,9.20
2014,11,20,13,18,9.20
2014,11,20,13,19,9.20
2014,11,20,13,20,9.20
2014,11,20,13,21,9.20
2014,11,20,13,22,9.30
2014,11,20,13,23,9.30
2014,11,20,13,24,9.30
2014,11,20,13,25,9.30
2014,11,20,13,26,9.30
2014,11,20,13,27,9.30
2014,11,20,13,28,9.30
2014,11,20,13,29,9.30
2014,11,20,13,30,9.30
2014,11,20,13,31,9.30
2014,11,20,13,32,9.30
2014,11,20,13,33,9.40
2014,11,20,13,34,9.40
2014,11,20,13,35,9.40
2014,11,20,13,36,9.40
2014,11,20,13,37,9.40
2014,11,20,13,38,9.40
2014,11,20,13,39,9.40
2014,11,20,13,40,9.40
2014,11,20,13,41,9.50
2014,11,20,13,42,9.50
2014,11,20,13,43,9.50
2014,11,20,13,44,9.50
2014,11,20,13,45,9.50
2014,11,20,13,46,9.50
2014,11,20,13,47,9.50
2014,11,20,13,48,9.50
2014,11,20,13,49,9.50
2014,11,20,13,50,9.50
2014,11,20,13,51,9.50
2014,11,20,13,52,9.50
2014,11,20,13,53,9.50
2014,11,20,13,54,9.50
2014,11,20,13,55,9.50
2014,11,20,13,56,9.50
2014,11,20,13,57,9.50
2014,11,20,13,58,9.50
2014,11,20,13,59,9.50
2014,11,20,14,00,9.50
2014,11,20,14,01,9.50
2014,11,20,14,02,9.60
2014,11,20,14,03,9.60
2014,11,20,14,04,9.60
2014,11,20,14,05,9.60
2014,11,20,14,06,9.60
2014,11,20,14,07,9.60
2014,11,20,14,08,9.60
2014,11,20,14,09,9.60
2014,11,20,14,10,9.60
2014,11,20,14,11,9.60
2014,11,20,14,12,9.60
2014,11,20,14,13,9.60
2014,11,20,14,14,9.60
2014,11,20,14,15,9.60
2014,11,20,14,16,9.60
2014,11,20,14,17,9.60
2014,11,20,14,18,9.60
2014,11,20,14,19,9.60
2014,11,20,14,20,9.60
2014,11,20,14,21,9.60
2014,11,20,14,22,9.50
2014,11,20,14,23,9.50
2014,11,20,14,24,9.50
2014,11,20,14,25,9.50
2014,11,20,14,26,9.50
2014,11,20,14,27,9.50
2014,11,20,14,28,9.50
2014,11,20,14,29,9.50
2014,11,20,14,30,9.50
2014,11,20,14,31,9.50
2014,11,20,14,32,9.50
2014,11,20,14,33,9.50
2014,11,20,14,34,9.50
2014,11,20,14,35,9.50
2014,11,20,14,36,9.50
2014,11,20,14,37,9.50
2014,11,20,14,38,9.50
2014,11,20,14,39,9.40
2014,11,20,14,40,9.40
2014,11,20,14,41,9.40
2014,11,20,14,42,9.40
2014,11,20,14,43,9.40
2014,11,20,14,44,9.40
2014,11,20,14,45,9.40
2014,11,20,14,46,9.40
2014,11,20,14,47,9.40
2014,11,20,14,48,9.40
2014,11,20,14,49,9.40
2014,11,20,14,50,9.40
2014,11,20,14,51,9.40
2014,11,20,14,52,9.40
2014,11,20,14,53,9.40
2014,11,20,14,54,9.40
2014,11,20,14,55,9.40
2014,11,20,14,56,9.40
2014,11,20,14,57,9.50
2014,11,20,14,58,9.50
2014,11,20,14,59,9.50
2014,11,20,15,00,9.50
2014,11,20,15,01,9.50
2014,11,20,15,02,9.50
2014,11,20,15,03,9.50
2014,11,20,15,04,9.50
2014,11,20,15,05,9.50
2014,11,20,15,06,9.50
2014,11,20,15,07,9.50
2014,11,20,15,08,9.50
2014,11,20,15,09,9.50
2014,11,20,15,10,9.50
2014,11,20,15,11,9.50
2014,11,20,15,12,9.50
2014,11,20,15,13,9.60
2014,11,20,15,14,9.60
2014,11,20,15,15,9.60
2014,11,20,15,16,9.60
2014,11,20,15,17,9.60
2014,11,20,15,18,9.60
2014,11,20,15,19,9.60
2014,11,20,15,20,9.60
2014,11,20,15,21,9.60
2014,11,20,15,22,9.60
2014,11,20,15,23,9.60
2014,11,20,15,24,9.60
2014,11,20,15,25,9.60
2014,11,20,15,26,9.60
2014,11,20,15,27,9.60
2014,11,20,15,28,9.70
2014,11,20,15,29,9.70
2014,11,20,15,30,9.70
2014,11,20,15,31,9.70
2014,11,20,15,32,9.70
2014,11,20,15,33,9.70
2014,11,20,15,34,9.70
2014,11,20,15,35,9.70
2014,11,20,15,36,9.70
2014,11,20,15,37,9.70
2014,11,20,15,38,9.70
2014,11,20,15,39,9.70
2014,11,20,15,40,9.70
2014,11,20,15,41,9.70
2014,11,20,15,42,9.70
2014,11,20,15,43,9.70
2014,11,20,15,44,9.70
2014,11,20,15,45,9.70
2014,11,20,15,46,9.70
2014,11,20,15,47,9.70
2014,11,20,15,48,9.70
2014,11,20,15,49,9.70
2014,11,20,15,50,9.70
2014,11,20,15,51,9.70
2014,11,20,15,52,9.70
2014,11,20,15,53,9.70
2014,11,20,15,54,9.70
2014,11,20,15,55,9.70
2014,11,20,15,56,9.70
2014,11,20,15,57,9.70
2014,11,20,15,58,9.70
2014,11,20,15,59,9.70
2014,11,20,16,00,9.70
2014,11,20,16,01,9.70
2014,11,20,16,02,9.70
2014,11,20,16,03,9.70
2014,11,20,16,04,9.70
2014,11,20,16,05,9.70
2014,11,20,16,06,9.70
2014,11,20,16,07,9.70
2014,11,20,16,08,9.70
2014,11,20,16,09,9.60
2014,11,20,16,10,9.60
2014,11,20,16,11,9.60
2014,11,20,16,12,9.60
2014,11,20,16,13,9.60
2014,11,20,16,14,9.60
2014,11,20,16,15,9.60
2014,11,20,16,16,9.50
2014,11,20,16,17,9.50
2014,11,20,16,18,9.50
2014,11,20,16,19,9.50
2014,11,20,16,20,9.50
2014,11,20,16,21,9.50
2014,11,20,16,22,9.50
2014,11,20,16,23,9.50
2014,11,20,16,24,9.50
2014,11,20,16,25,9.50
2014,11,20,16,26,9.40
2014,11,20,16,27,9.40
2014,11,20,16,28,9.40
2014,11,20,16,29,9.40
2014,11,20,16,30,9.40
2014,11,20,16,31,9.40
2014,11,20,16,32,9.40
2014,11,20,16,33,9.40
2014,11,20,16,34,9.40
2014,11,20,16,35,9.40
2014,11,20,16,36,9.40
2014,11,20,16,37,9.30
2014,11,20,16,38,9.30
2014,11,20,16,39,9.30
2014,11,20,16,40,9.30
2014,11,20,16,41,9.30
2014,11,20,16,42,9.30
2014,11,20,16,43,9.30
2014,11,20,16,44,9.30
2014,11,20,16,45,9.30
2014,11,20,16,46,9.30
2014,11,20,16,47,9.30
2014,11,20,16,48,9.30
2014,11,20,16,49,9.30
2014,11,20,16,50,9.20
2014,11,20,16,51,9.20
2014,11,20,16,52,9.20
2014,11,20,16,53,9.20
2014,11,20,16,54,9.20
2014,11,20,16,55,9.20
2014,11,20,16,56,9.20
2014,11,20,16,57,9.20
2014,11,20,16,58,9.20
2014,11,20,16,59,9.20
2014,11,20,17,00,9.20
2014,11,20,17,01,9.20
2014,11,20,17,02,9.20
2014,11,20,17,03,9.20
2014,11,20,17,04,9.20
2014,11,20,17,05,9.20
2014,11,20,17,06,9.20
2014,11,20,17,07,9.20
2014,11,20,17,08,9.20
2014,11,20,17,09,9.20
2014,11,20,17,10,9.20
2014,11,20,17,11,9.20
2014,11,20,17,12,9.20
2014,11,20,17,13,9.20
2014,11,20,17,14,9.10
2014,11,20,17,15,9.10
2014,11,20,17,16,9.10
2014,11,20,17,17,9.10
2014,11,20,17,18,9.10
2014,11,20,17,19,9.10
2014,11,20,17,20,9.10
2014,11,20,17,21,9.10
2014,11,20,17,22,9.10
2014,11,20,17,23,9.10
2014,11,20,17,24,9.10
2014,11,20,17,25,9.10
2014,11,20,21,05,8.90
2014,11,20,21,06,8.90
2014,11,20,21,07,8.90
2014,11,20,21,08,8.90
2014,11,20,21,09,8.90
2014,11,20,21,10,8.90
2014,11,20,21,11,8.90
2014,11,20,21,12,8.90
2014,11,20,21,13,8.90
2014,11,20,21,14,8.90
2014,11,20,21,15,8.90
2014,11,20,21,16,8.90
2014,11,20,21,17,8.90
2014,11,20,21,18,8.90
2014,11,20,21,19,8.90
2014,11,20,21,20,8.90
2014,11,20,21,21,8.90
2014,11,20,21,22,8.90
2014,11,20,21,23,8.90
2014,11,20,21,24,8.90
2014,11,20,21,25,8.90
2014,11,20,21,26,8.90
2014,11,20,21,27,8.90
2014,11,20,21,28,8.90
2014,11,20,21,29,8.90
2014,11,20,21,30,8.90
2014,11,20,21,31,8.90
2014,11,20,21,32,8.90
2014,11,20,21,33,8.90
2014,11,20,21,34,8.90
2014,11,20,21,35,8.90
2014,11,20,21,36,8.90
2014,11,20,21,37,8.90
2014,11,20,21,38,8.90
2014,11,20,21,39,8.90
2014,11,20,21,40,8.90
2014,11,20,21,41,8.90
